This demonstration page uses our WeatherBlox Daily Observations layout. Learn more.

Left ArrowRight Arrow

39.51506, -84.39828

Hourly Observations for April 17, 2015

Temp ( °F °C ) Dew Point ( °F °C ) Humidity (%) Winds ( mph kmh ) Pressure ( in mb ) Visibility ( mi km ) Precip ( " mm )
12:15 am 00:15 Mostly Cloudy 62 16.6 58 14.6 88 88 Calm 30.06 1018 10 16 0.00 0.00
12:35 am 00:35 Partly Cloudy 62 16.6 58 14.6 88 88 SSW 3 6 30.06 1018 7 11 0.00 0.00
12:55 am 00:55 Mostly Cloudy with Mist and Fog 60 15.3 56 13.3 88 88 Calm 30.09 1019 1 1 0.00 0.00
1:15 am 01:15 Mostly Cloudy with Fog 60 15.3 56 13.5 89 89 Calm 30.09 1019 1 1 0.00 0.00
1:35 am 01:35 Mostly Cloudy with Mist and Fog 60 15.3 56 13.5 89 89 Calm 30.09 1019 2 2 0.00 0.00
1:55 am 01:55 Cloudy 60 15.3 56 13.5 89 89 Calm 30.09 1019 7 11 0.00 0.00
2:15 am 02:15 Cloudy 60 15.3 56 13.5 89 89 Calm 30.09 1019 7 11 0.00 0.00
2:35 am 02:35 Cloudy 60 15.3 56 13.5 89 89 Calm 30.09 1019 10 16 0.00 0.00
2:55 am 02:55 Cloudy 60 15.3 56 13.5 89 89 Calm 30.09 1019 7 11 0.00 0.00
3:15 am 03:15 Cloudy 60 15.3 56 13.5 89 89 Calm 30.09 1019 7 11 0.00 0.00
3:35 am 03:35 Cloudy 62 16.6 59 14.8 89 89 WNW 3 6 30.06 1018 7 11 0.00 0.00
3:55 am 03:55 Cloudy 62 16.6 59 14.8 89 89 Calm 30.06 1018 7 11 0.00 0.00
4:15 am 04:15 Cloudy with Mist and Fog 60 15.6 57 13.7 89 89 Calm 30.09 1019 5 8 0.00 0.00
4:35 am 04:35 Cloudy 61 16 57 14 88 88 Calm 30.09 1019 7 11 0.00 0.00
4:55 am 04:55 Partly Cloudy 60 15.5 56 13.3 87 87 N 3 6 30.09 1019 7 11 0.00 0.00
5:15 am 05:15 Mostly Cloudy 61 16 55 13 83 83 N 3 6 30.09 1019 10 16 0.00 0.00
5:35 am 05:35 Partly Cloudy 60 15.3 55 12.7 85 85 Calm 30.09 1019 7 11 0.00 0.00
5:55 am 05:55 Clear 60 15.3 55 13 86 86 Calm 30.09 1019 7 11 0.00 0.00
6:15 am 06:15 Clear with Mist and Fog 57 13.8 53 11.5 86 86 Calm 30.09 1019 4 6 0.00 0.00
6:35 am 06:35 Clear with Mist and Fog 56 13.6 53 11.6 88 88 Calm 30.09 1019 3 4 0.00 0.00
6:55 am 06:55 Mostly Cloudy with Fog 55 13 52 11.2 89 89 Calm 30.12 1020 1 1 0.00 0.00
7:15 am 07:15 Mostly Cloudy with Fog 55 12.5 51 10.6 88 88 Calm 30.12 1020 0 0 0.00 0.00
7:35 am 07:35 Mostly Cloudy with Fog 55 12.5 51 10.6 88 88 Calm 30.12 1020 0 0 0.00 0.00
7:55 am 07:55 Mostly Cloudy with Mist and Fog 55 12.5 51 10.6 88 88 Calm 30.12 1020 1 2 0.00 0.00
8:15 am 08:15 Sunny with Mist and Fog 57 13.8 54 12.1 90 90 Calm 30.12 1020 2 3 0.00 0.00
8:35 am 08:35 Sunny with Mist and Fog 60 15.3 56 13.6 90 90 Calm 30.12 1020 3 5 0.00 0.00
8:55 am 08:55 Sunny 60 15.6 55 12.5 82 82 N 5 7 30.12 1020 7 11 0.00 0.00
9:15 am 09:15 Sunny 62 16.6 53 11.5 72 72 N 6 9 30.12 1020 7 11 0.00 0.00
9:35 am 09:35 Sunny 62 16.6 51 10.3 67 67 N 5 7 30.12 1020 10 16 0.00 0.00
9:55 am 09:55 Sunny 64 17.5 49 9.4 59 59 NNE 6 9 30.12 1020 10 16 0.00 0.00
10:15 am 10:15 Sunny 64 18 49 9.2 57 57 NNE 3 6 30.12 1020 10 16 0.00 0.00
10:35 am 10:35 Sunny 67 19.4 49 9.4 53 53 N 6 9 30.12 1020 10 16 0.00 0.00
10:55 am 10:55 Sunny 68 19.8 49 9.6 52 52 N 10 17 30.12 1020 10 16 0.00 0.00
11:15 am 11:15 Sunny 69 20.8 50 10 50 50 Calm 30.12 1020 10 16 0.00 0.00
11:35 am 11:35 Sunny 69 20.8 47 8.2 44 44 Calm 30.12 1020 10 16 0.00 0.00
11:55 am 11:55 Sunny 69 20.8 47 8.4 45 45 NE 3 6 30.12 1020 10 16 0.00 0.00
12:15 pm 12:15 Sunny 69 20.8 46 7.6 43 43 N 6 9 30.09 1019 10 16 0.00 0.00
12:35 pm 12:35 Sunny 70 21.1 43 6.1 38 38 NNE 10 17 30.09 1019 10 16 0.00 0.00
12:55 pm 12:55 Sunny 71 21.9 43 6.3 36 36 N 5 7 30.09 1019 10 16 0.00 0.00
1:15 pm 13:15 Sunny 72 22.4 44 6.5 36 36 N 5 7 30.09 1019 10 16 0.00 0.00
1:35 pm 13:35 Sunny 74 23.5 45 7 35 35 ENE 7 11 30.09 1019 10 16 0.00 0.00
1:55 pm 13:55 Sunny 74 23.6 40 4.6 29 29 NNW 7 11 30.06 1018 10 16 0.00 0.00
2:15 pm 14:15 Sunny 74 23.6 42 5.7 32 32 ENE 7 11 30.06 1018 10 16 0.00 0.00
2:35 pm 14:35 Sunny 74 23.6 40 4.2 28 28 Calm 30.06 1018 10 16 0.00 0.00
2:55 pm 14:55 Sunny 74 23.6 39 4.1 28 28 N 6 9 30.06 1018 10 16 0.00 0.00
3:15 pm 15:15 Sunny 74 23.6 37 2.7 26 26 Calm 30.03 1017 10 16 0.00 0.00
3:35 pm 15:35 Sunny 74 23.6 37 2.6 25 25 WSW 3 6 30.03 1017 10 16 0.00 0.00
3:55 pm 15:55 Sunny 76 24.6 37 2.5 24 24 NW 5 7 30.03 1017 10 16 0.00 0.00
4:15 pm 16:15 Sunny 77 25 37 2.5 23 23 NNE 3 6 30.03 1017 10 16 0.00 0.00
4:35 pm 16:35 Sunny 75 23.9 34 1.3 23 23 Calm 30.03 1017 10 16 0.00 0.00
4:55 pm 16:55 Sunny 77 25.1 34 1.1 21 21 N 5 7 30.00 1016 10 16 0.00 0.00
5:15 pm 17:15 Sunny 77 25.1 32 -0.2 19 19 Calm 30.00 1016 10 16 0.00 0.00
5:35 pm 17:35 Sunny 77 25.1 33 0.8 20 20 NNE 3 6 30.00 1016 10 16 0.00 0.00
5:55 pm 17:55 Sunny 77 25.1 33 0.8 20 20 Calm 30.00 1016 10 16 0.00 0.00
6:15 pm 18:15 Sunny 76 24.2 33 0.4 21 21 NW 3 6 30.00 1016 10 16 0.00 0.00
6:35 pm 18:35 Sunny 75 23.7 34 1 22 22 NNE 5 7 30.00 1016 10 16 0.00 0.00
6:55 pm 18:55 Sunny 74 23.6 38 3.6 27 27 NE 3 6 30.00 1016 10 16 0.00 0.00
7:15 pm 19:15 Sunny 74 23.6 38 3.1 26 26 Calm 30.00 1016 10 16 0.00 0.00
7:35 pm 19:35 Sunny 74 23.6 36 2.2 25 25 Calm 30.00 1016 10 16 0.00 0.00
7:55 pm 19:55 Sunny 74 23.6 39 3.9 28 28 Calm 30.00 1016 10 16 0.00 0.00
8:15 pm 20:15 Sunny 69 20.8 47 8.6 46 46 Calm 30.00 1016 10 16 0.00 0.00
8:35 pm 20:35 Clear 68 19.8 50 9.9 53 53 N 5 7 30.00 1016 10 16 0.00 0.00
8:55 pm 20:55 Clear 61 16.2 50 10.2 68 68 Calm 30.00 1016 10 16 0.00 0.00
9:15 pm 21:15 Clear 62 16.6 49 9.5 63 63 Calm 30.03 1017 10 16 0.00 0.00
9:35 pm 21:35 Clear 61 16 51 10.4 70 70 Calm 30.03 1017 10 16 0.00 0.00
9:55 pm 21:55 Clear 60 15.4 51 10.5 73 73 Calm 30.06 1018 10 16 0.00 0.00
10:15 pm 22:15 Clear 57 13.8 50 10 78 78 Calm 30.06 1018 10 16 0.00 0.00
10:35 pm 22:35 Clear 57 14.1 48 9 72 72 Calm 30.06 1018 10 16 0.00 0.00
10:55 pm 22:55 Clear 57 13.8 47 8.6 71 71 N 3 6 30.06 1018 10 16 0.00 0.00
11:15 pm 23:15 Clear 57 13.8 48 8.7 72 72 Calm 30.06 1018 10 16 0.00 0.00
11:35 pm 23:35 Clear 57 13.8 49 9.3 74 74 Calm 30.06 1018 10 16 0.00 0.00
11:55 pm 23:55 Clear 56 13.5 48 8.9 74 74 NNE 3 6 30.06 1018 10 16 0.00 0.00

Powered by AerisWeather